NATO 4B

Last updated on Nov. 8, 2016, 1:18 a.m. UTC

1 22921U 93076A   16310.58333333 -.00000119  00000-0  00000+0 0  9994
2 22921  12.1105  25.2920 0004991 227.7953  23.9841  0.98291557 83897
UTC
Height (km)
Latitude
Longitude
Inclination
Orbital Period
UTC large
Height (km)
Speed (km/s)
/
Latitude / Longitude
Inclination (degrees)
Orbital Period (minutes)
Azimuth
Elevation
Range (km)
Doppler Factor
iOS Compass Heading
iOS Angle

Next 30 passes for location: Hong Kong

Rise time Rise Azimuth (degrees) Set time Set Azimuth (degrees) Duration Max altitude (degrees)

No matching passes for this satellites